[[{"header":{"parameterUnit":"m.s-1","parameterCategory":1,"la1":30.2991,"la2":30.254,"lo1":-89.0895,"lo2":-89.0444,"dy":0.0017,"dx":0.0017,"nx":28,"ny":28,"refTime":"2024-07-21T09:00:00:Z","depth":0,"parameterNumber":2,"parameterNumberName":"U-component_of_WINDS"},"data":[0,0,0,0,0,0,0,0,0,0,0,0,0,0,0,0,0,0,0,0,0,0,0,0,0,0,0,0,0,0,0,0,0,0,0,0,0,0,0,0,0,0,0,0,0,0,0,0,0,0,0,0,0,0,0,0,0,0,1.3373,1.3373,0,1.3368,1.3367,1.3367,1.3343,1.3342,1.3342,1.3341,1.3336,1.3336,1.3337,0,0,0,0,0,0,0,0,0,0,0,0,0,1.3363,1.3363,1.3373,1.3373,1.3373,1.3368,1.3367,1.3367,1.3343,1.3342,1.3342,1.3341,1.3336,1.3336,1.3337,0,0,0,0,0,0,0,0,0,0,0,0,0,1.3363,1.3363,1.3373,1.336,1.3359,1.3368,1.3367,1.3367,1.3343,1.3342,1.3342,1.3341,1.3336,1.3336,1.3337,1.3357,0,0,1.3338,1.3339,0,0,0,0,0,0,0,0,1.3363,1.3364,1.3362,1.3361,1.336,1.3355,1.3362,1.3364,1.3343,1.3349,1.3341,1.334,1.3343,1.3343,1.3344,1.3357,1.3357,1.3338,1.3339,1.3339,1.3339,0,0,0,0,0,0,0,1.3363,1.3364,1.3371,1.3362,1.3361,1.3355,1.3354,1.3362,1.3351,1.3349,1.3347,1.3347,1.3342,1.3343,1.3343,1.3357,1.3338,1.3339,1.3339,1.334,1.3388,1.3389,0,0,0,0,0,0,1.3365,1.3364,1.3371,1.3371,1.3359,1.3356,1.3355,1.3357,1.3351,1.3349,1.3347,1.3345,1.3343,1.3343,1.3343,1.3367,1.3339,1.334,1.334,1.3387,1.3388,1.3389,0,0,0,0,0,0,1.3365,1.3366,1.3371,1.3367,1.3367,1.3357,1.336,1.3358,1.3359,1.335,1.3348,1.335,1.3342,1.3342,1.3354,1.3367,1.334,1.334,1.3386,1.3387,1.3388,1.3415,0,0,0,0,0,0,1.3365,1.3366,1.3374,1.3367,1.3367,1.3382,1.3361,1.3358,1.336,1.3357,1.3352,1.335,1.3341,1.3353,1.3355,1.3367,1.3341,1.3384,1.3386,1.3388,1.3413,1.3417,1.3421,0,0,0,0,0,1.3364,1.3381,1.3374,1.3375,1.3377,1.3383,1.3383,1.3372,1.3361,1.3369,1.3363,1.3351,1.3365,1.3355,1.3356,1.3369,1.3384,1.3386,1.3388,1.3412,1.3417,1.3421,0,0,0,0,0,0,1.3389,1.338,1.3372,1.3387,1.3386,1.3379,1.3388,1.3378,1.338,1.3377,1.3364,1.3363,1.3377,1.3374,1.3363,1.3389,1.3372,1.3375,1.339,1.3395,1.3399,1.3399,1.3341,0,0,0,0,0,1.3396,1.3402,1.3394,1.3408,1.3408,1.3398,1.3401,1.3393,1.3391,1.339,1.3385,1.3384,1.3388,1.3391,1.3395,1.3413,1.3412,1.3422,1.3426,1.3429,1.3432,1.3441,1.3446,1.3396,1.3396,1.3396,0,0,1.3411,1.3407,1.3412,1.3413,1.3411,1.3418,1.3398,1.3406,1.341,1.3391,1.3402,1.3399,1.3397,1.3412,1.3418,1.341,1.3445,1.3432,1.3435,1.3435,1.3444,1.3449,1.3453,1.3397,1.3397,1.3397,0,0,1.3442,1.3439,1.3451,1.345,1.3447,1.3441,1.3444,1.3438,1.3435,1.3446,1.3432,1.3438,1.3445,1.3444,1.3445,1.3476,1.3465,1.3478,1.3498,1.3508,1.3512,1.3515,1.3526,1.353,1.348,1.348,1.348,0,1.3461,1.347,1.3458,1.3467,1.3468,1.3452,1.3464,1.3463,1.3462,1.3463,1.3454,1.3464,1.3461,1.3476,1.3484,1.3485,1.3488,1.3478,1.3512,1.3515,1.3518,1.3529,1.3533,1.3482,1.3482,1.3482,1.3481,0,1.3493,1.35,1.351,1.3509,1.3512,1.3522,1.3513,1.3517,1.3508,1.3503,1.3515,1.3511,1.3514,1.3517,1.3509,1.3531,1.3525,1.3514,1.3498,1.3525,1.3535,1.3539,1.3484,1.3484,1.3483,1.3483,0,0,1.3539,1.3532,1.3536,1.3536,1.3532,1.3537,1.3547,1.355,1.3554,1.3554,1.3562,1.3569,1.3559,1.356,1.3552,1.356,1.3585,1.3548,1.3548,1.3555,1.3609,1.3618,1.3622,1.3578,1.3579,1.358,1.361,0,1.3568,1.3584,1.3574,1.3592,1.3598,1.3583,1.3592,1.3591,1.3586,1.3591,1.3586,1.3591,1.3578,1.3578,1.3586,1.3581,1.3596,1.3578,1.3585,1.3586,1.3586,1.3627,1.3636,1.3664,1.3613,1.3614,1.3614,0,1.3604,1.3606,1.3624,1.362,1.3622,1.363,1.3632,1.3637,1.3636,1.3632,1.3633,1.3623,1.3633,1.3617,1.363,1.3618,1.3621,1.3619,1.362,1.3619,1.3601,1.3628,1.3673,1.3677,1.362,1.362,1.3619,0,1.3635,1.3642,1.3654,1.3654,1.365,1.3656,1.3654,1.3652,1.3655,1.3657,1.3658,1.3661,1.3663,1.3665,1.3657,1.3646,1.3671,1.3654,1.3668,1.3668,1.3674,1.3673,1.3719,1.3676,1.3676,1.3676,1.3676,0,1.3668,1.368,1.3668,1.3675,1.3688,1.3678,1.3691,1.3688,1.3686,1.3693,1.368,1.3686,1.3675,1.368,1.3674,1.3686,1.3687,1.3684,1.3682,1.3685,1.3685,1.3686,1.3683,1.3677,1.3677,1.3677,1.3676,0,1.3705,1.3697,1.3709,1.3704,1.3703,1.3713,1.3709,1.3716,1.3711,1.3719,1.3721,1.3713,1.3719,1.371,1.3715,1.3711,1.3727,1.3723,1.3728,1.3726,1.3741,1.3739,1.3788,1.3794,1.3747,1.3748,1.3748,0,1.3726,1.3735,1.3731,1.3735,1.3734,1.374,1.3743,1.3732,1.3736,1.3735,1.3742,1.3747,1.375,1.3761,1.3755,1.3759,1.3754,1.3771,1.3754,1.3757,1.3754,1.3753,1.3754,1.3774,1.3775,1.3775,1.3776,0,1.3765,1.3761,1.3765,1.3769,1.3772,1.3774,1.3775,1.3779,1.3768,1.3773,1.3779,1.3781,1.3787,1.3792,1.3794,1.3793,1.3783,1.3781,1.3784,1.3787,1.379,1.3788,1.3737,1.378,1.3779,1.3779,1.3779,1.3779,1.3795,1.3802,1.38,1.3806,1.3806,1.3807,1.3813,1.3809,1.3814,1.3818,1.3812,1.3819,1.3818,1.3821,1.382,1.3826,1.3819,1.3824,1.3825,1.3826,1.3828,1.3789,1.3827,1.3827,1.3827,1.3826,1.3826,0,1.3833,1.3831,1.3836,1.3838,1.3843,1.3833,1.3834,1.3838,1.3845,1.3845,1.3849,1.3856,1.3861,1.3856,1.3861,1.3866,1.3862,1.3867,1.3867,1.3866,1.3835,1.3831,1.3871,1.3871,1.3871,1.3871,1.3871,1.3871,1.3853,1.3865,1.3861,1.3873,1.3871,1.3879,1.388,1.3881,1.3881,1.389,1.3894,1.3891,1.389,1.3894,1.3898,1.3896,1.3898,1.3906,1.3903,1.3873,1.3869,1.3864,1.3861,1.3906,1.3907,1.3934,1.3934,1.3934]},{"header":{"parameterUnit":"m.s-1","parameterCategory":1,"la1":30.2991,"la2":30.254,"lo1":-89.0895,"lo2":-89.0444,"dy":0.0017,"dx":0.0017,"nx":28,"ny":28,"refTime":"2024-07-21T09:00:00:Z","depth":0,"parameterNumber":3,"parameterNumberName":"V-component_of_WINDS"},"data":[0,0,0,0,0,0,0,0,0,0,0,0,0,0,0,0,0,0,0,0,0,0,0,0,0,0,0,0,0,0,0,0,0,0,0,0,0,0,0,0,0,0,0,0,0,0,0,0,0,0,0,0,0,0,0,0,0,0,1.6011,1.6012,0,1.6051,1.6051,1.6051,1.6069,1.6069,1.6069,1.6069,1.6106,1.6107,1.6108,0,0,0,0,0,0,0,0,0,0,0,0,0,1.5948,1.5949,1.6011,1.6012,1.6012,1.605,1.6051,1.6052,1.6069,1.6069,1.6069,1.6069,1.6105,1.6107,1.6108,0,0,0,0,0,0,0,0,0,0,0,0,0,1.598,1.595,1.6011,1.6025,1.6027,1.605,1.6051,1.6052,1.6069,1.6069,1.6069,1.6069,1.6105,1.6106,1.6108,1.6119,0,0,1.6113,1.6113,0,0,0,0,0,0,0,0,1.5978,1.5983,1.6023,1.6024,1.6026,1.6055,1.6042,1.6074,1.6069,1.6053,1.6069,1.6068,1.6089,1.6091,1.6099,1.6121,1.6122,1.6113,1.6114,1.6114,1.6115,0,0,0,0,0,0,0,1.5976,1.5981,1.6027,1.6023,1.6026,1.6029,1.6034,1.6049,1.607,1.6054,1.6056,1.606,1.6089,1.6097,1.61,1.6123,1.6113,1.6114,1.6115,1.6116,1.6156,1.6156,0,0,0,0,0,0,1.5972,1.5979,1.6025,1.6028,1.6002,1.603,1.6035,1.6046,1.607,1.6074,1.606,1.6061,1.6095,1.6098,1.6101,1.6116,1.6114,1.6116,1.6117,1.6156,1.6156,1.6156,0,0,0,0,0,0,1.5971,1.5976,1.6024,1.6004,1.601,1.6031,1.6043,1.6046,1.6054,1.6075,1.6079,1.6064,1.6095,1.6099,1.6115,1.6118,1.6117,1.6118,1.6156,1.6156,1.6156,1.6146,0,0,0,0,0,0,1.5969,1.5975,1.598,1.6004,1.6011,1.6037,1.6043,1.6047,1.6057,1.6059,1.608,1.6083,1.6095,1.6112,1.6116,1.612,1.6119,1.6156,1.6156,1.6156,1.6146,1.6146,1.6146,0,0,0,0,0,1.5966,1.5975,1.598,1.5986,1.6018,1.6038,1.6042,1.6056,1.6058,1.6062,1.6076,1.6083,1.6117,1.6114,1.6118,1.6122,1.6155,1.6156,1.6156,1.6146,1.6146,1.6146,0,0,0,0,0,0,1.595,1.5978,1.5985,1.6001,1.6017,1.604,1.6047,1.6055,1.607,1.607,1.6086,1.6091,1.6105,1.6115,1.6112,1.6135,1.6137,1.6138,1.6128,1.6127,1.6127,1.6124,1.612,0,0,0,0,0,1.5948,1.5963,1.5987,1.5999,1.6007,1.6025,1.6034,1.6044,1.6061,1.6067,1.6082,1.6096,1.6111,1.612,1.6134,1.6148,1.6153,1.6153,1.6152,1.6152,1.6153,1.6162,1.6162,1.6157,1.6157,1.6157,0,0,1.5945,1.5962,1.597,1.5996,1.6009,1.6023,1.6031,1.6045,1.6055,1.6069,1.6085,1.6096,1.6114,1.6129,1.6136,1.6138,1.6155,1.6153,1.6152,1.6153,1.6162,1.6162,1.6163,1.6158,1.6158,1.6157,0,0,1.5946,1.5961,1.5973,1.5987,1.6007,1.602,1.6023,1.6045,1.6054,1.607,1.6081,1.6093,1.6117,1.613,1.6139,1.6146,1.6153,1.615,1.6148,1.6156,1.6157,1.6157,1.616,1.6161,1.6151,1.6151,1.6151,0,1.5939,1.5962,1.5978,1.5992,1.6003,1.6018,1.603,1.6042,1.6065,1.6072,1.6074,1.6105,1.6118,1.6136,1.6138,1.6145,1.6149,1.6147,1.6156,1.6156,1.6157,1.616,1.6161,1.615,1.615,1.615,1.615,0,1.5952,1.5967,1.5975,1.5999,1.6011,1.6024,1.6042,1.6051,1.606,1.6072,1.6089,1.6105,1.6123,1.6128,1.6137,1.6148,1.6149,1.6153,1.6155,1.6157,1.616,1.6161,1.6149,1.615,1.615,1.615,0,0,1.5943,1.5977,1.598,1.5991,1.6016,1.6027,1.6041,1.606,1.6068,1.6084,1.6096,1.6116,1.612,1.6131,1.6141,1.6148,1.6153,1.6151,1.6152,1.6151,1.6167,1.6164,1.6165,1.6158,1.6158,1.6158,1.6166,0,1.5948,1.5975,1.599,1.601,1.6024,1.6038,1.605,1.6066,1.6078,1.6091,1.6104,1.6119,1.6123,1.613,1.6137,1.6151,1.6156,1.615,1.6168,1.6169,1.6164,1.6167,1.6163,1.617,1.6167,1.6167,1.6167,0,1.5957,1.5974,1.5996,1.602,1.6026,1.6037,1.6056,1.6068,1.6086,1.6095,1.6107,1.6117,1.6132,1.6133,1.6153,1.6148,1.6157,1.6164,1.6165,1.6167,1.6168,1.6169,1.6172,1.6173,1.6169,1.6169,1.6169,0,1.5949,1.5978,1.5995,1.6004,1.6031,1.6039,1.605,1.6068,1.6079,1.6095,1.6102,1.6119,1.6129,1.6141,1.6155,1.6155,1.6174,1.6176,1.6181,1.6181,1.6184,1.6184,1.6189,1.6189,1.6189,1.6189,1.6189,0,1.5953,1.5966,1.5992,1.6002,1.6017,1.6034,1.6048,1.606,1.6077,1.6089,1.6102,1.6113,1.6131,1.6144,1.6155,1.6171,1.6174,1.6181,1.6184,1.618,1.6179,1.6186,1.6186,1.6189,1.6189,1.6189,1.6189,0,1.5947,1.5965,1.5984,1.6009,1.6016,1.6025,1.6047,1.6057,1.607,1.6085,1.609,1.611,1.6126,1.6142,1.6163,1.6171,1.6186,1.619,1.6181,1.6182,1.6186,1.6186,1.6195,1.6198,1.6196,1.6196,1.6196,0,1.5948,1.5959,1.5985,1.5995,1.6007,1.6023,1.6034,1.6052,1.6063,1.6085,1.6092,1.611,1.6125,1.6151,1.6167,1.6183,1.6187,1.619,1.619,1.6186,1.6188,1.6187,1.6188,1.6189,1.6189,1.6189,1.6189,0,1.5949,1.5957,1.5974,1.5994,1.6008,1.6024,1.604,1.6047,1.6068,1.6079,1.6097,1.6109,1.6132,1.6149,1.6168,1.6179,1.6187,1.6189,1.6191,1.6187,1.6182,1.6186,1.618,1.6189,1.6189,1.6189,1.6189,1.6189,1.5947,1.5957,1.5978,1.5996,1.601,1.6026,1.6037,1.6052,1.6068,1.6089,1.6098,1.6116,1.6134,1.616,1.6171,1.6185,1.6187,1.6189,1.619,1.6191,1.619,1.618,1.6188,1.6188,1.6188,1.6188,1.6188,0,1.5948,1.5963,1.5979,1.6003,1.6017,1.6025,1.6044,1.6055,1.6071,1.6088,1.6103,1.6124,1.6141,1.6158,1.6176,1.6184,1.6188,1.6188,1.6188,1.619,1.6187,1.6184,1.6185,1.6185,1.6185,1.6185,1.6185,1.6185,1.5951,1.5969,1.598,1.6006,1.602,1.6039,1.6049,1.6063,1.6076,1.6099,1.6114,1.6126,1.6143,1.6163,1.6179,1.6183,1.6189,1.6188,1.6194,1.619,1.6191,1.6191,1.6188,1.6189,1.6189,1.6196,1.6196,1.6196]}]]